KENT RIDGE 1

Last updated on Mon Jun 22 2026 00:02:51 GMT+0000 (Coordinated Universal Time)

1 41167U 15077B 26172.41996573 .00003269 00000+0 10298-3 0 9993 2 41167 14.9788 234.5105 0008233 298.0966 61.8524 15.23153232581742
UTC large
Height (km)
Speed (km/s)
/
Latitude / Longitude
Inclination (degrees)
Orbital Period (minutes)
Azimuth
Elevation
Range (km)
Doppler Factor

Next 0 passes for location: London (51.5072 / 0.1276)

No passes found over London.
KENT RIDGE 1